Gwinn, MI

2:21 AM EDT on June 26, 2017 (GMT -0400)
Sawyer International

Weather History for KSAW - April, 2013

Change the Weather History Date:

Saturday, April 27, 2013

  Actual Average (KESC) Record (KESC)
Temperature  
Mean Temperature 48 °F -  
Max Temperature 66 °F 51 °F 66 °F (1983)
Min Temperature 31 °F 35 °F 26 °F (1976)
Degree Days  
Heating Degree Days 16    
Moisture  
Dew Point 37 °F    
Average Humidity 77    
Maximum Humidity 94    
Minimum Humidity 42    
Precipitation  
Precipitation 0.00 in - - ()
Sea Level Pressure  
Sea Level Pressure 30.09 in    
Wind  
Wind Speed 2 mph (SSE)    
Max Wind Speed 13 mph    
Max Gust Speed 16 mph    
Visibility 10 miles    
Events      
Averages and records for this station are not official NWS values.
T = Trace of Precipitation, MM = Missing Value Source: NWS Daily Summary

Daily Weather History Graph

Daily Weather History Graph

Search for Another Location

Airport or City:

Trip Planner

Search our weather history database for the weather conditions in past years. The results will help you decide how hot, cold, wet, or windy it might be!

Date:

Astronomy

Apr. 27, 2013 Rise Set
Actual Time 6:41 AM EDT 8:53 PM EDT
Civil Twilight 6:08 AM EDT 9:26 PM EDT
Nautical Twilight 5:28 AM EDT 10:07 PM EDT
Astronomical Twilight 4:42 AM EDT 10:53 PM EDT
Moon 11:28 PM EDT (4/27) 7:54 AM EDT (4/27)
Length of Visible Light 15h 17m
Length of Day
14h 11m
Waning Gibbous, 95% of the Moon is Illuminated
Apr 27
Waning Gibbous
May 2
Last Quarter
May 9
New
May 18
First Quarter
May 25
Full

Hourly Weather History & Observations

Time (EDT) Temp. Windchill Dew Point Humidity Pressure Visibility Wind Dir Wind Speed Gust Speed Precip Events Conditions
12:17 AM 38.7 °F - 34.0 °F 83% 30.14 in 10.0 mi Calm Calm - N/A   Clear
12:37 AM 40.6 °F - 35.4 °F 82% 30.14 in 10.0 mi Calm Calm - N/A   Clear
12:57 AM 38.3 °F - 34.0 °F 84% 30.14 in 10.0 mi Calm Calm - N/A   Clear
1:17 AM 36.7 °F - 33.1 °F 87% 30.14 in 10.0 mi Calm Calm - N/A   Clear
1:37 AM 36.9 °F - 32.0 °F 83% 30.14 in 10.0 mi Calm Calm - N/A   Clear
1:57 AM 34.9 °F - 32.0 °F 89% 30.14 in 10.0 mi Calm Calm - N/A   Clear
2:17 AM 34.7 °F - 32.0 °F 90% 30.14 in 10.0 mi Calm Calm - N/A   Clear
2:37 AM 35.1 °F - 32.0 °F 89% 30.14 in 10.0 mi Calm Calm - N/A   Clear
2:57 AM 35.2 °F - 32.0 °F 88% 30.14 in 10.0 mi Calm Calm - N/A   Clear
3:17 AM 33.1 °F - 30.0 °F 89% 30.14 in 10.0 mi Calm Calm - N/A   Clear
3:37 AM 33.8 °F - 30.7 °F 89% 30.14 in 10.0 mi Calm Calm - N/A   Clear
3:56 AM 32.9 °F - 30.4 °F 90% 30.13 in 10.0 mi Calm Calm - N/A   Clear
4:17 AM 32.0 °F - 29.7 °F 91% 30.13 in 10.0 mi Calm Calm - N/A   Clear
4:37 AM 32.2 °F - 29.3 °F 89% 30.13 in 10.0 mi Calm Calm - N/A   Clear
4:57 AM 31.3 °F - 28.9 °F 91% 30.13 in 10.0 mi Calm Calm - N/A   Clear
5:17 AM 31.5 °F - 28.9 °F 90% 30.13 in 10.0 mi Calm Calm - N/A   Clear
5:37 AM 31.1 °F - 28.4 °F 90% 30.13 in 10.0 mi Calm Calm - N/A   Clear
5:57 AM 32.0 °F - 30.4 °F 94% 30.13 in 10.0 mi Calm Calm - N/A   Clear
6:55 AM 32.0 °F - 28.4 °F 87% 30.13 in 10.0 mi Calm Calm - N/A   Clear
7:50 AM 32.0 °F - 30.2 °F 93% 30.14 in 10.0 mi Calm Calm - N/A   Clear
8:55 AM 39.2 °F 35.9 °F 35.6 °F 87% 30.14 in 10.0 mi SW 4.6 mph - N/A   Clear
9:50 AM 48.2 °F - 39.2 °F 71% 30.13 in 10.0 mi Calm Calm - N/A   Clear
10:50 AM 55.4 °F - 41.0 °F 58% 30.12 in 10.0 mi Calm Calm - N/A   Clear
11:50 AM 60.8 °F - 37.4 °F 42% 30.13 in 10.0 mi SSE 5.8 mph - N/A   Clear
12:50 PM 62.6 °F - 39.2 °F 42% 30.11 in 10.0 mi SE 4.6 mph - N/A   Clear
1:50 PM 64.4 °F - 41.0 °F 42% 30.09 in 10.0 mi South 9.2 mph - N/A   Clear
2:50 PM 66.2 °F - 42.8 °F 43% 30.06 in 10.0 mi SSE 9.2 mph - N/A   Scattered Clouds
3:50 PM 66.2 °F - 46.4 °F 49% 30.05 in 10.0 mi SSE 12.7 mph 16.1 mph N/A   Mostly Cloudy
4:50 PM 62.6 °F - 48.2 °F 59% 30.04 in 10.0 mi SE 10.4 mph - N/A   Mostly Cloudy
5:55 PM 62.6 °F - 48.2 °F 59% 30.01 in 10.0 mi SSE 9.2 mph - N/A   Mostly Cloudy
6:50 PM 62.6 °F - 48.2 °F 59% 30.01 in 10.0 mi SSE 10.4 mph - N/A   Mostly Cloudy
7:50 PM 60.8 °F - 46.4 °F 59% 30.00 in 10.0 mi SSE 9.2 mph - N/A   Clear
8:50 PM 57.2 °F - 46.4 °F 67% 30.01 in 10.0 mi SSE 8.1 mph - N/A   Clear
9:55 PM 51.8 °F - 44.6 °F 76% 30.01 in 10.0 mi SSE 10.4 mph - N/A   Clear
10:17 PM 51.3 °F - 44.4 °F 77% 30.01 in 10.0 mi SSE 9.2 mph - N/A   Clear
10:37 PM 50.4 °F - 44.1 °F 79% 30.00 in 10.0 mi South 9.2 mph - N/A   Clear
10:56 PM 49.6 °F - 43.9 °F 81% 30.01 in 10.0 mi South 9.2 mph - N/A   Clear
11:17 PM 48.7 °F - 43.7 °F 83% 30.00 in 10.0 mi SSE 9.2 mph - N/A   Clear
11:37 PM 48.4 °F - 43.3 °F 83% 30.00 in 10.0 mi SSE 9.2 mph - N/A   Clear
11:57 PM 47.8 °F - 43.2 °F 84% 30.00 in 10.0 mi South 8.1 mph - N/A   Clear